Regional Weather Roundup
Issued by NWS Cleveland, OH

Home | Current Version | Previous Version | Graphics & Text | Print | Product List | Glossary On
Versions: 1 2 3 4 5 6 7 8 9 10 11 12 13 14 15 16 17 18 19 20 21 22 23 24 25 26 27 28 29 30 31 32 33 34 35 36 37 38 39 40 41 42 43 44 45 46 47 48 49 50
000
ASUS41 KCLE 290702
RWRCLE
OHIO REGIONAL WEATHER ROUNDUP
NATIONAL WEATHER SERVICE CLEVELAND, OH
300 AM EDT TUE JUL 29 2014

NOTE: "FAIR" INDICATES FEW OR NO CLOUDS BELOW 12,000 FEET WITH NO
SIGNIFICANT WEATHER AND/OR OBSTRUCTIONS TO VISIBILITY.

OHZ001>008-015>018-024>027-034-035-043-044-290800-
   NORTHWEST OHIO

CITY           SKY/WX    TMP DP  RH WIND       PRES   REMARKS
DEFIANCE       CLEAR     52  48  86 CALM      30.02S
FINDLAY        MOCLDY    58  50  75 N6        29.99F
TOLEDO EXPRESS CLEAR     52  48  86 NW6       30.00F
TOLEDO EXEC    CLEAR     53  47  79 NW3       30.01S
LIMA           CLOUDY    57  52  83 N7        30.01S
$$

OHZ009>014-019>023-028>033-038-089-290800-
   NORTHEAST OHIO

CITY           SKY/WX    TMP DP  RH WIND       PRES   REMARKS
CLE-HOPKINS    PTCLDY    53  47  79 W5        29.98S
CLE-LAKEFRONT  CLOUDY    62  49  62 N12       29.95S
CUY CO. ARPT   NOT AVBL
LORAIN-ELYRIA  PTCLDY    58  48  69 NW3       29.98F
ASHTABULA      CLOUDY    57  50  77 W3        29.94S
AKRON-CANTON   MOCLDY    55  50  83 CALM      29.97R
WOOSTER        CLEAR     51  48  89 CALM      29.98F
MANSFIELD      CLOUDY    56  53  90 CALM      29.99S
YOUNGSTOWN     CLOUDY    54  48  80 W5        29.95S
$$

OHZ042-051>053-060>062-070>072-077>081-290800-
  SOUTHWEST OHIO

CITY           SKY/WX    TMP DP  RH WIND       PRES   REMARKS
CINC-COVINGTON CLEAR     54  48  80 NW7       30.02S
CINC-LUNKEN    CLEAR     56  50  80 CALM      30.03R
HAMILTON       PTCLDY    54  51  90 CALM      30.03S
DAYTON         CLEAR     54  50  86 NW8       30.01S
WRIGHT-PAT AFB CLEAR     55  51  87 NW8       30.00S
DAYTON GENERAL CLEAR     55  50  83 NW7       30.00S
WILMINGTON     CLEAR     55  49  80 NW7       29.99F
$$

OHZ036-037-039>041-045>050-054>059-063>069-073>076-082>088-290800-
  CENTRAL AND SOUTHEAST OHIO

CITY           SKY/WX    TMP DP  RH WIND       PRES   REMARKS
COLUMBUS       CLOUDY    64  58  80 N5        29.97S
OSU AIRPORT    CLEAR     58  55  90 N8        29.97S
BOLTON FIELD   PTCLDY    56  55  96 W5        29.98S
RICKENBACK AFB PTCLDY    60  53  77 NW5       29.97S
NEWARK         CLOUDY    61  54  77 CALM      29.98R
MARION         PTCLDY    56  54  93 NE5       29.99F
LANCASTER      CLOUDY    61  56  83 NE3       29.97S
ZANESVILLE     CLOUDY    60  52  74 NE5       29.97S
NEW PHILLY     PTCLDY    56  53  90 CALM      29.98S
$$


USA.gov is the U.S. government's official web portal to all federal, state and local government web resources and services.